Vertical_Velocity
-2 -6 -9 6 12 3 1 -6 14 -5 -3 -0 0 -3 -3 1 0 -1 -2 -1 0 0 -0 1 2 1 1 0 -1 -1 1 2 -0 1 0 0 -1 -1 -0 -1 1 2 1 0
5 -4 8 4 -4 2 -0 -3 10 -5 -5 4 -4 1 -3 -1 1 -3 -2 -1 -0 1 2 2 2 3 1 0 -1 -1 2 -1 0 1 -2 -3 -1 -0 1 1 0 -1 0 1
-3 2 3 1 2 -3 1 1 4 -2 -4 3 -2 2 -1 -1 -0 -3 1 0 0 1 2 2 0 1 -0 -2 2 4 3 2 0 1 2 2 3 1 0 0 1 2 1 -1
10 28 -1 1 2 4 4 4 2 -0 -2 -1 -3 3 0 -3 -3 -2 1 0 1 0 2 0 -0 -0 1 1 2 3 2 3 3 2 2 1 0 0 -0 -1 -2 -2 -3 -2
-7 -11 -5 -3 7 1 0 -0 -0 -4 -1 -0 -0 -2 2 -2 -2 -1 1 -1 -1 1 2 0 -1 1 1 1 2 2 3 3 3 2 1 0 0 -1 -1 -0 -1 -1 1 3
3 9 -1 9 3 -2 5 1 2 0 -1 -1 -1 -3 16 -3 -2 3 1 1 1 1 -0 -0 0 0 1 2 1 3 2 1 1 2 2 1 1 2 1 -0 -1 -0 -0 -2
24 -10 -1 1 -5 -4 4 1 -1 -2 -5 3 -1 -5 22 -5 2 -0 -1 -1 1 3 3 1 2 1 2 2 0 1 2 3 3 -0 -0 0 0 -0 1 1 1 1 -0 -0
8 10 -14 -1 19 5 3 -0 3 -6 -1 -0 2 0 5 -4 -1 1 -0 1 1 -2 -1 1 3 1 1 -0 1 2 2 -0 1 2 2 1 0 1 1 2 2 2 1 2
-14 -10 -13 5 12 7 -2 -5 2 -5 -2 1 2 -1 6 -0 0 -0 0 1 -3 -1 4 2 2 1 -0 0 1 1 1 1 -0 -0 0 2 2 1 0 0 -1 -1 1 2
10 7 4 5 -2 -4 -0 7 2 -2 -1 -1 0 2 -3 1 0 -1 -2 -1 -2 4 2 1 -0 -1 -1 1 0 0 -1 -0 1 2 1 -0 -1 0 -0 -0 0 -1 -2 -3
-2 1 -2 -0 -8 -0 -2 -5 -8 -7 -7 -5 2 2 2 1 -2 0 1 -2 0 1 0 -1 -2 -0 1 1 1 0 -0 2 2 1 1 -0 -1 -2 -1 -1 0 1 -0 -1
3 -4 -4 13 6 3 -3 2 4 3 7 2 -1 1 1 -1 1 1 2 3 -0 -0 -1 0 0 1 0 0 0 1 3 3 1 -1 -1 -0 -0 -1 -1 -0 -1 -1 -4 -6
4 1 -0 -6 -8 -2 -1 4 3 -4 -5 0 -4 5 1 3 -0 2 1 -0 -2 1 1 1 -0 -0 0 0 0 1 1 -0 0 -2 -0 -2 -2 -1 -1 -2 -3 -5 -2 -2
-1 -2 5 8 22 13 -6 -0 2 -2 -9 11 1 6 6 -1 -2 0 -0 2 1 1 1 0 0 -1 1 1 -0 1 -0 -3 -2 -1 -3 -2 -1 -1 -1 -3 -4 -1 1 1
-2 1 0 0 0 -7 -4 -2 1 -5 7 -15 13 -6 -4 -0 0 -1 1 2 1 1 1 2 1 1 0 0 0 -2 -1 -1 -2 -2 -0 -3 -4 1 -0 -2 -2 -0 -3 -4
3 2 1 -0 1 1 0 -2 -2 -6 -2 -4 4 4 1 0 -2 1 2 0 0 1 1 1 1 0 -2 -2 -0 -0 -2 -3 -2 -3 -2 -1 -1 -3 -4 -1 -2 -3 0 -2
-2 -2 -0 -2 -1 -4 -10 6 0 1 -1 -1 -4 9 -2 -1 1 0 -2 1 3 1 0 -1 -2 -1 -1 -1 -1 -1 -2 -2 -1 -1 -2 -3 -1 -2 -1 -3 -2 -0 0 -0
2 9 0 -2 -2 -5 7 -2 -1 -2 -3 -1 2 2 -1 -0 -1 -1 0 -1 -1 -1 -0 0 -0 0 -0 -0 -1 1 -0 -2 -1 -4 -2 -0 -0 1 -2 -1 -2 -2 -1 -1
8 10 -2 -0 1 4 2 2 1 -1 2 0 -0 1 2 -1 1 2 0 -1 0 1 1 0 -1 -1 -1 -1 0 -5 -1 -1 -1 -1 -1 -0 1 -1 -2 -1 -1 -1 -1 -4
2 -1 -3 2 -0 0 5 0 1 1 -0 -0 1 1 -0 -2 -1 -1 -2 2 2 0 -0 1 1 -2 -0 0 -2 1 2 1 -1 -0 0 -1 -1 -1 -0 -0 -4 -4 -9 -2
2 -1 5 -0 -7 -6 3 -3 -0 -1 -2 2 -0 -1 -2 -4 -1 -1 2 2 2 1 1 -0 2 2 -0 0 1 0 1 1 1 1 -1 -1 -4 -1 -4 -2 -5 -2 -1 -0
6 -3 2 -1 0 -0 3 -4 2 -1 -4 -1 0 -2 0 1 1 3 3 1 0 1 3 4 1 -1 0 -1 1 0 3 0 -2 -1 -2 -4 -3 -3 -4 -4 -3 -1 -4 -2
1 -0 -0 -2 -2 -0 1 2 -0 -2 -1 -2 0 0 1 2 1 0 -0 -0 1 2 1 -2 -2 -1 -0 1 1 0 0 -1 0 -1 -1 -2 -1 -5 -7 -3 -1 -1 -3 -4
-1 0 -1 -1 3 1 -0 0 1 1 1 1 1 1 1 0 1 2 2 0 -2 -1 -1 -1 -1 1 1 -0 -1 -0 -1 -1 -1 1 -0 -3 -3 1 1 -0 -4 -1 -3 -4
-0 2 3 0 3 -0 1 -0 3 4 3 1 1 1 1 1 -0 -1 -1 -1 -0 -1 -0 0 1 0 0 -2 -3 1 -0 0 1 -2 -3 0 1 -2 0 0 -2 -3 -3 -4
0 -1 -0 1 -2 -1 -2 -1 0 -0 -1 1 2 2 0 -0 -0 1 2 0 1 2 3 1 -0 -1 -2 -3 -2 -0 -1 -1 0 2 -1 -0 0 1 -1 -1 2 1 0 1
Height
5681 5692 5700 5715 5728 5742 5752 5757 5762 5764 5768 5775 5780 5786 5787 5790 5794 5795 5796 5799 5801 5803 5805 5806 5806 5805 5804 5803 5804 5804 5803 5803 5802 5800 5798 5796 5794 5790 5787 5784 5781 5778 5775 5772
5672 5686 5701 5716 5726 5736 5744 5751 5756 5760 5766 5771 5775 5782 5783 5786 5788 5790 5792 5794 5796 5797 5798 5799 5799 5799 5798 5798 5798 5799 5798 5798 5796 5795 5793 5790 5787 5784 5781 5778 5775 5772 5769 5765
5675 5688 5700 5709 5720 5728 5738 5747 5752 5757 5760 5766 5771 5777 5778 5781 5783 5786 5788 5790 5791 5792 5793 5794 5794 5793 5792 5792 5793 5794 5793 5792 5790 5788 5785 5782 5780 5777 5774 5771 5768 5765 5761 5758
5670 5685 5696 5705 5716 5727 5735 5744 5746 5751 5755 5762 5766 5773 5774 5776 5778 5780 5782 5784 5786 5787 5788 5788 5788 5787 5786 5785 5786 5787 5787 5787 5784 5781 5777 5775 5773 5770 5767 5765 5761 5758 5754 5750
5667 5681 5692 5702 5716 5725 5734 5736 5740 5745 5752 5758 5762 5768 5772 5770 5774 5776 5778 5779 5781 5782 5783 5783 5782 5781 5781 5780 5780 5781 5781 5780 5778 5774 5771 5769 5766 5763 5760 5757 5754 5750 5747 5742
5667 5683 5690 5703 5712 5720 5725 5729 5736 5743 5746 5755 5757 5762 5767 5767 5769 5771 5772 5774 5776 5778 5778 5778 5777 5776 5775 5775 5775 5774 5774 5772 5770 5767 5765 5762 5759 5756 5753 5749 5745 5741 5736 5731
5665 5678 5689 5700 5707 5714 5718 5724 5731 5737 5741 5752 5753 5756 5763 5763 5764 5766 5766 5768 5771 5773 5773 5773 5771 5770 5769 5769 5768 5767 5765 5763 5761 5760 5757 5754 5751 5748 5744 5740 5736 5732 5726 5720
5659 5673 5685 5693 5700 5709 5717 5722 5729 5732 5739 5744 5748 5752 5755 5758 5758 5760 5761 5763 5765 5766 5767 5767 5765 5763 5762 5761 5761 5759 5757 5755 5753 5751 5748 5744 5741 5738 5735 5730 5726 5720 5714 5708
5662 5674 5685 5692 5699 5708 5712 5716 5726 5730 5734 5739 5744 5749 5749 5751 5752 5753 5755 5757 5759 5760 5760 5759 5757 5756 5754 5753 5753 5751 5749 5747 5745 5742 5739 5736 5732 5728 5724 5719 5713 5707 5700 5693
5665 5674 5682 5690 5696 5700 5707 5717 5719 5723 5731 5736 5739 5743 5744 5744 5746 5748 5750 5751 5752 5753 5753 5752 5750 5748 5747 5746 5745 5743 5741 5739 5737 5734 5730 5726 5722 5718 5713 5707 5700 5693 5685 5677
5661 5672 5681 5688 5693 5701 5707 5710 5716 5722 5726 5731 5734 5738 5739 5739 5740 5742 5744 5745 5745 5746 5746 5745 5743 5741 5741 5740 5737 5735 5733 5731 5729 5725 5720 5717 5712 5707 5701 5694 5686 5679 5670 5662
5662 5670 5677 5687 5693 5700 5703 5708 5712 5715 5721 5725 5728 5733 5734 5734 5734 5736 5738 5738 5739 5739 5739 5738 5737 5735 5734 5732 5730 5729 5726 5723 5720 5715 5711 5707 5701 5694 5687 5680 5672 5664 5655 5645
5662 5668 5674 5679 5685 5690 5694 5701 5706 5712 5717 5720 5722 5727 5728 5728 5729 5730 5731 5732 5732 5732 5732 5732 5731 5729 5727 5726 5724 5721 5718 5714 5710 5706 5701 5695 5688 5682 5674 5666 5657 5649 5639 5629
5658 5665 5672 5680 5689 5695 5697 5701 5705 5707 5708 5713 5716 5720 5721 5722 5722 5724 5725 5726 5726 5726 5726 5725 5724 5722 5721 5719 5716 5712 5709 5705 5700 5695 5689 5683 5675 5668 5660 5651 5643 5633 5623 5612
5655 5661 5667 5673 5679 5683 5688 5692 5697 5699 5704 5704 5712 5712 5713 5715 5717 5719 5719 5720 5720 5720 5719 5718 5717 5716 5713 5710 5707 5703 5699 5694 5689 5683 5676 5669 5661 5653 5644 5636 5627 5617 5605 5593
5653 5658 5663 5668 5672 5677 5681 5685 5688 5692 5696 5699 5705 5708 5708 5710 5712 5713 5713 5713 5713 5713 5712 5710 5709 5706 5704 5701 5697 5693 5688 5683 5677 5671 5663 5655 5647 5638 5630 5622 5611 5600 5588 5575
5653 5657 5661 5665 5669 5672 5676 5682 5685 5690 5692 5696 5698 5703 5702 5704 5706 5706 5706 5706 5706 5706 5704 5703 5701 5698 5695 5691 5687 5682 5677 5671 5664 5657 5649 5641 5632 5623 5614 5604 5594 5582 5570 5556
5651 5655 5658 5661 5665 5668 5676 5679 5682 5685 5688 5691 5694 5696 5696 5697 5698 5699 5699 5699 5699 5698 5697 5695 5692 5689 5686 5682 5677 5671 5665 5658 5650 5642 5634 5625 5616 5607 5597 5586 5576 5564 5551 5538
5648 5651 5656 5659 5663 5669 5672 5676 5679 5680 5684 5685 5688 5690 5690 5690 5691 5692 5692 5692 5691 5690 5688 5686 5683 5680 5675 5670 5665 5659 5652 5643 5635 5627 5618 5609 5601 5591 5581 5570 5559 5547 5534 5518
5646 5649 5654 5657 5659 5663 5669 5671 5673 5674 5678 5681 5682 5682 5682 5682 5683 5684 5684 5684 5683 5681 5679 5676 5673 5669 5664 5659 5652 5644 5636 5628 5620 5611 5603 5594 5585 5574 5564 5553 5541 5527 5511 5497
5642 5645 5648 5650 5654 5659 5664 5666 5668 5670 5676 5674 5674 5674 5675 5675 5676 5676 5676 5676 5673 5672 5669 5666 5663 5658 5652 5645 5638 5630 5622 5614 5606 5597 5588 5579 5568 5558 5547 5535 5520 5506 5492 5476
5640 5642 5645 5648 5650 5653 5658 5661 5663 5664 5665 5666 5666 5667 5668 5669 5669 5669 5667 5666 5664 5662 5659 5655 5650 5644 5638 5631 5623 5616 5608 5600 5591 5582 5573 5563 5552 5540 5528 5516 5501 5486 5470 5457
5638 5641 5643 5646 5649 5650 5653 5654 5655 5656 5658 5659 5660 5660 5661 5661 5661 5660 5658 5656 5654 5651 5648 5643 5637 5630 5624 5616 5609 5601 5593 5585 5577 5568 5558 5547 5535 5523 5508 5495 5482 5468 5451 5438
5635 5638 5640 5642 5644 5645 5647 5648 5649 5650 5651 5651 5652 5653 5653 5652 5651 5650 5649 5647 5644 5640 5635 5629 5623 5616 5608 5601 5594 5587 5580 5572 5563 5554 5543 5531 5519 5505 5491 5477 5461 5447 5434 5422
5633 5635 5636 5637 5638 5639 5640 5640 5641 5643 5643 5644 5644 5645 5644 5644 5643 5641 5638 5635 5632 5627 5621 5615 5608 5601 5594 5587 5581 5575 5566 5557 5548 5538 5526 5514 5501 5488 5476 5461 5444 5431 5418 5405
5628 5630 5631 5632 5633 5634 5634 5634 5634 5635 5636 5636 5636 5636 5635 5634 5632 5631 5628 5624 5619 5613 5607 5601 5594 5587 5580 5574 5567 5559 5551 5542 5532 5521 5510 5497 5486 5472 5457 5444 5432 5417 5405 5393